Weather in Mukry

Turkmenistan     37°35′43″N   65°43′40″E
temp.,
°C
wind,
m/s
gust,
m/s
humid.,
%
clouds,
%
prec.,
mm/h
press.,
hPa
HPBL,
m
17 april, sat
sat1723:00+22nnw58230 0.0 1014125
02:00+20nnw47246 0.0 101387
05:00+19nnw59245 0.0 1014111
08:00+22n59214 0.0 1016290
11:00+27nnw66144 0.0 10161337
14:00+28nnw8612100 0.0 10162691
17:00+27nnw8814100 0.0 10152415
20:00+23nw1114275 0.0 1017674
18 april, sun
sun1823:00+21nnw8143172 0.0 1018367
02:00+20n59312 0.0 1018148
05:00+18wnw333813 0.0 101926
08:00+20w333452 0.0 1021220
11:00+24nw34245 0.0 10212470
14:00+26nnw34210 0.0 10192684
17:00+27nnw44190 0.0 10172786
20:00+25nne46241 0.0 1017108
19 april, mon
mon1923:00+23nne333115 0.0 101734
02:00+21ese46389 0.0 1015103
05:00+20e46374 0.0 101484
08:00+22e58323 0.0 1014573
11:00+27e77202 0.0 10131924
14:00+29nne43165 0.0 10112415
17:00+29n54150 0.0 10092649
20:00+26n59205 0.0 1010206
20 april, tue
tue2023:00+23nne46264 0.0 101081
02:00+22nne333070 0.0 100913
05:00+21wnw2229100 0.0 101011
08:00+23wnw5826100 0.0 1012372
11:00+27nw671998 0.0 10121308
14:00+29wsw882156 0.0 10103559
17:00+27w89222 0.0 10093008
20:00+24nnw812245 0.0 1011621
21 april, wed
wed2123:00+21n36335 0.0 1012152
02:00+20nnw223789 0.0 101211
05:00+19nnw22395 0.0 101311
08:00+21n22310 0.0 1014205
11:00+25nnw45220 0.0 10142140
14:00+28nnw56165 0.0 10133195
17:00+28nnw88173 0.0 10133448
20:00+24nne810285 0.0 1015622